Weather observations for the past three days for
Telluride, Telluride Regional Airport
Imperial (Metric)
Date Time (mdt) Wind (mph) Vis. (mi.) Weather Sky Cond. Temperature (ºF) Relative Humidity Wind Chill (°F) Heat Index (°F) Pressure Precipitation (in)
Air Dwpt 6 hour altimeter (in) sea level (mb) 1 hr 3 hr 6 hr
Max. Min.
22 19:55 Calm 10.00 Partly Cloudy SCT110 62.6 41 45% 30.51 0.0
22 19:35 Calm 10.00 Partly Cloudy SCT095 62.6 41 45% 30.51 0.0
22 19:15 NE 5 10.00 Overcast OVC095 62.6 41 45% 30.5 0.0
22 18:55 Calm 10.00 Overcast BKN095 OVC110 62.6 42.8 49% 30.5 0.0
22 18:35 S 3 10.00 Overcast SCT065 OVC095 64.4 39.2 40% 30.49 0.0
22 18:15 Calm 10.00 Overcast SCT065 OVC095 64.4 41 43% 30.49 0.0
22 17:55 N 3 10.00 Overcast BKN065 BKN075 OVC095 64.4 41 43% 30.48 0.0
22 17:35 N 3 10.00 Overcast BKN065 BKN085 OVC110 66.2 39.2 37% 30.48 0.0
22 17:15 W 9 10.00 Mostly Cloudy SCT065 SCT095 BKN120 69.8 37.4 31% 30.46 0.0
22 16:55 N 3 10.00 Fair CLR 71.6 37.4 29% 30.47 0.0
22 16:35 N 5 10.00 Fair CLR 71.6 33.8 25% 30.47 0.0
22 16:15 W 6 10.00 Fair CLR 71.6 37.4 29% 30.48 0.0
22 15:55 W 7 10.00 Partly Cloudy SCT100 71.6 32 23% 30.48 0.0
22 15:35 W 6 10.00 Mostly Cloudy SCT080 BKN100 69.8 32 25% 30.48 0.0
22 15:15 NW 9 10.00 Partly Cloudy SCT110 71.6 28.4 20% 30.49 0.0
22 14:55 W 10 G 18 10.00 Fair CLR 71.6 30.2 22% 30.49 0.0
22 14:35 W 10 10.00 Partly Cloudy SCT065 SCT075 SCT120 69.8 32 25% 30.5 0.0
22 14:15 W 10 10.00 Mostly Cloudy BKN065 BKN075 BKN090 68 37.4 33% 30.5 0.0
22 13:55 W 14 G 18 10.00 Mostly Cloudy SCT065 SCT075 BKN090 69.8 37.4 31% 30.5 0.0
22 13:35 W 10 10.00 Mostly Cloudy SCT065 SCT085 BKN120 69.8 33.8 27% 30.5 0.0
22 13:15 W 10 10.00 Overcast BKN065 BKN075 OVC110 71.6 35.6 27% 30.5 0.0
22 12:55 W 10 10.00 Mostly Cloudy SCT065 SCT085 BKN110 69.8 37.4 31% 30.5 0.0
22 12:35 W 5 10.00 Fair CLR 69.8 37.4 31% 30.5 0.0
22 12:15 W 9 10.00 Fair CLR 69.8 37.4 31% 30.51 0.0
22 11:55 SW 3 10.00 Fair CLR 69.8 37.4 31% 30.51 0.0
22 11:35 Calm 10.00 Fair CLR 68 41 38% 30.51 0.0
22 11:15 S 3 10.00 Fair CLR 68 39.2 35% 30.51 0.0
22 10:55 S 3 10.00 Partly Cloudy SCT110 66.2 41 40% 30.51 0.0
22 10:35 Calm 10.00 Mostly Cloudy BKN100 64.4 42.8 46% 30.51 0.0
22 10:15 Calm 10.00 Overcast OVC100 62.6 42.8 49% 30.51 0.0
22 09:55 S 6 10.00 Mostly Cloudy BKN100 62.6 44.6 52% 30.51 0.0
22 09:35 Calm 10.00 Mostly Cloudy BKN110 62.6 44.6 52% 30.51 0.0
22 09:15 NE 5 10.00 Mostly Cloudy BKN120 62.6 44.6 52% 30.51 0.0
22 08:55 Calm 10.00 Mostly Cloudy SCT095 BKN120 60.8 44.6 55% 30.52 0.0
22 08:35 Calm 10.00 Mostly Cloudy SCT095 BKN120 60.8 44.6 55% 30.52 0.0
22 08:15 Calm 10.00 Mostly Cloudy SCT100 BKN120 59 44.6 59% 30.51 0.0
22 07:55 Calm 10.00 Partly Cloudy SCT100 57.2 42.8 59% 30.51 0.0
22 07:35 NE 3 10.00 Fair CLR 55.4 41 59% 30.5 0.0
22 07:15 Calm 10.00 Fair CLR 55.4 42.8 63% 30.49 0.0
22 06:55 Calm 10.00 Fair CLR 51.8 41 67% 30.48 0.0
22 06:35 SE 3 10.00 Partly Cloudy SCT120 51.8 41 67% 30.48 0.0
22 06:15 Calm 10.00 Partly Cloudy SCT120 51.8 42.8 72% 30.49 0.0
22 05:55 Calm 10.00 Partly Cloudy SCT120 53.6 42.8 67% 30.48 0.0
22 05:35 Calm 10.00 Partly Cloudy SCT120 53.6 42.8 67% 30.48 0.0
22 05:15 E 3 10.00 Partly Cloudy SCT120 53.6 41 63% 30.48 0.0
22 04:55 Calm 10.00 Fair CLR 53.6 41 63% 30.47 0.0
22 04:35 Calm 10.00 Fair CLR 53.6 42.8 67% 30.47 0.0
22 04:15 Calm 10.00 Partly Cloudy SCT100 SCT120 51.8 41 67% 30.46 0.0
22 03:55 Calm 10.00 Mostly Cloudy SCT100 BKN120 51.8 44.6 77% 30.46 0.0
22 03:35 Calm 10.00 Mostly Cloudy BKN120 51.8 44.6 77% 30.45 0.0
22 03:15 SE 5 10.00 Mostly Cloudy BKN120 51.8 44.6 77% 30.45 0.0
22 02:55 S 7 10.00 Partly Cloudy SCT100 SCT120 51.8 44.6 77% 30.45 0.0
22 02:35 SE 6 10.00 Overcast OVC100 53.6 44.6 72% 30.45 0.0
22 02:15 SE 7 10.00 Mostly Cloudy BKN100 51.8 44.6 77% 30.45 0.0
22 01:55 SE 6 10.00 Overcast OVC100 51.8 46.4 82% 30.46 0.0
22 01:35 SE 6 10.00 Mostly Cloudy BKN110 51.8 46.4 82% 30.46 0.0
22 01:15 Calm 10.00 Mostly Cloudy BKN120 53.6 44.6 72% 30.46 0.0
22 00:55 Calm 10.00 Mostly Cloudy BKN110 51.8 46.4 82% 30.47 0.0
22 00:35 SE 7 10.00 Overcast OVC100 51.8 46.4 82% 30.47 0.0
22 00:15 SE 5 10.00 Overcast SCT080 OVC100 51.8 44.6 77% 30.46 0.0
21 23:55 Calm 10.00 Overcast OVC100 51.8 44.6 77% 30.47 0.0
21 23:35 Calm 10.00 Mostly Cloudy BKN100 51.8 46.4 82% 30.46 0.0
21 23:15 SE 5 10.00 Mostly Cloudy BKN100 51.8 46.4 82% 30.45 0.0
21 22:55 S 7 10.00 Overcast OVC100 51.8 46.4 82% 30.44 0.0
21 22:35 SE 8 10.00 Overcast SCT080 OVC110 51.8 46.4 82% 30.45 0.0
21 22:15 SE 6 10.00 Overcast BKN080 OVC110 51.8 46.4 82% 30.44 0.0
21 21:55 SE 5 10.00 Overcast OVC080 51.8 46.4 82% 30.45 0.0
21 21:35 E 5 10.00 Overcast BKN080 OVC090 51.8 46.4 82% 30.45 0.0
21 21:15 SE 7 10.00 Overcast SCT070 OVC090 51.8 44.6 77% 30.44 0.0
21 20:55 Calm 10.00 Mostly Cloudy BKN070 BKN090 51.8 44.6 77% 30.43 0.0
21 20:35 Calm 10.00 Partly Cloudy SCT070 SCT090 51.8 44.6 77% 30.41 0.0
21 20:15 E 6 10.00 Partly Cloudy SCT070 SCT090 51.8 46.4 82% 30.41 0.0
21 19:55 E 7 10.00 Partly Cloudy SCT036 SCT055 SCT075 53.6 44.6 72% 30.42 0.0 0.07
21 19:35 NE 5 G 23 5.00 Rain SCT037 SCT047 OVC060 53.6 44.6 72% 30.45 0.0 0.07
21 19:15 Calm 10.00 Rain SCT039 BKN048 OVC050 53.6 44.6 72% 30.48 0.0 0.01
21 18:35 W 3 10.00 Rain OVC055 57.2 42.8 59% 30.43 0.0 0.02
21 18:15 SE 12 10.00 Light Rain BKN055 BKN075 OVC120 59 50 72% 30.4 0.0
21 17:55 Calm 10.00 Mostly Cloudy SCT055 SCT065 BKN095 60.8 44.6 55% 30.38 0.0
21 17:35 E 7 10.00 Light Rain BKN060 BKN075 OVC090 60.8 48.2 63% 30.38 0.0
21 17:15 Calm 10.00 Rain SCT070 BKN090 BKN120 62.6 50 64% 30.39 0.0
21 16:55 SW 3 10.00 Fair CLR 60.8 50 68% 30.34 0.0
21 16:35 W 6 10.00 Partly Cloudy SCT095 SCT120 62.6 50 64% 30.34 0.0
21 16:10 Calm 10.00 Fair CLR 64.4 50 60% 30.36 0.0
21 15:55 Calm 10.00 Partly Cloudy SCT029 SCT065 SCT085 64.4 50 60% 30.36 0.0
21 15:35 W 5 10.00 Mostly Cloudy SCT029 SCT055 BKN065 60.8 50 68% 30.38 0.0
21 15:15 W 14 G 22 10.00 Overcast SCT050 BKN060 OVC110 59 48.2 68% 30.39 0.0
21 14:55 W 9 10.00 Mostly Cloudy SCT048 BKN060 BKN070 62.6 48.2 60% 30.38 0.0 0.01
21 14:35 Calm 10.00 Mostly Cloudy SCT042 BKN060 BKN110 64.4 48.2 56% 30.4 0.0 0.01
21 14:15 W 8 10.00 Overcast SCT042 BKN060 OVC110 62.6 50 64% 30.41 0.0 0.01
21 13:55 Calm 10.00 Mostly Cloudy SCT042 SCT070 BKN110 62.6 48.2 60% 30.41 0.0
21 13:35 W 3 10.00 Light Rain SCT043 BKN070 BKN090 60.8 50 68% 30.42 0.0
21 13:15 W 9 10.00 Mostly Cloudy SCT043 BKN060 BKN090 62.6 50 64% 30.43 0.0
21 12:55 S 3 10.00 Overcast SCT065 BKN090 OVC110 64.4 48.2 56% 30.42 0.0
21 12:35 Calm 10.00 Mostly Cloudy SCT095 BKN110 62.6 46.4 56% 30.42 0.0
21 12:15 E 7 10.00 Partly Cloudy SCT120 60.8 46.4 59% 30.43 0.0
21 11:55 Calm 10.00 Partly Cloudy SCT043 SCT065 SCT120 59 51.8 77% 30.44 0.0
21 11:35 E 3 10.00 Mostly Cloudy BKN036 BKN050 BKN070 55.4 50 82% 30.45 0.0
21 11:15 SE 7 10.00 Mostly Cloudy BKN036 BKN044 BKN050 53.6 48.2 82% 30.46 0.0
21 10:55 SE 10 10.00 Mostly Cloudy SCT008 SCT029 BKN036 53.6 48.2 82% 30.46 0.0 0.13
21 10:35 SE 6 5.00 Light Rain SCT013 BKN028 OVC036 50 46.4 88% 48 30.47 0.0 0.13
21 10:15 W 5 5.00 Light Rain BKN037 OVC044 51.8 46.4 82% 30.48 0.0 0.06
21 09:55 W 10 10.00 Overcast BKN038 OVC047 51.8 44.6 77% 30.47 0.0
21 09:35 W 3 10.00 Light Rain BKN043 BKN050 OVC055 51.8 48.2 88% 30.45 0.0
21 09:15 W 12 10.00 Overcast SCT048 OVC055 51.8 46.4 82% 30.46 0.0
21 08:55 W 8 10.00 Overcast OVC050 51.8 46.4 82% 30.45 0.0
21 08:35 Calm 10.00 Overcast SCT055 BKN075 OVC090 57.2 44.6 63% 30.43 0.0
21 08:15 Calm 10.00 Mostly Cloudy SCT065 BKN075 BKN100 57.2 44.6 63% 30.43 0.0
21 07:55 Calm 10.00 Partly Cloudy SCT065 SCT100 55.4 44.6 67% 30.43 0.0
21 07:35 Calm 10.00 Mostly Cloudy BKN110 57.2 44.6 63% 30.42 0.0
21 07:15 Calm 10.00 Partly Cloudy SCT110 53.6 42.8 67% 30.42 0.0
21 06:55 E 3 10.00 Partly Cloudy SCT075 50 44.6 82% 30.42 0.0
21 06:35 SE 5 10.00 Partly Cloudy SCT060 SCT075 SCT080 51.8 42.8 72% 30.42 0.0
21 06:15 Calm 10.00 Overcast BKN060 OVC075 50 44.6 82% 30.42 0.0
21 05:55 SE 7 10.00 Mostly Cloudy BKN060 BKN075 50 44.6 82% 48 30.43 0.0
21 05:35 SE 9 10.00 Partly Cloudy SCT060 SCT110 50 44.6 82% 47 30.43 0.0
21 05:15 SE 10 10.00 Mostly Cloudy SCT060 SCT085 BKN110 48.2 44.6 87% 44 30.43 0.0
21 04:55 SE 8 10.00 Overcast BKN060 OVC085 50 44.6 82% 47 30.43 0.0
21 04:35 SE 10 10.00 Overcast BKN060 OVC080 50 44.6 82% 46 30.44 0.0
21 04:15 SE 9 10.00 Overcast SCT050 BKN070 OVC110 50 44.6 82% 47 30.44 0.0
21 03:55 SE 7 10.00 Overcast BKN050 OVC065 50 44.6 82% 48 30.45 0.0
21 03:35 SE 3 10.00 Light Rain BKN050 BKN065 OVC090 50 44.6 82% 30.45 0.0
21 03:15 E 6 10.00 Light Rain BKN055 BKN065 OVC090 50 44.6 82% 48 30.46 0.0
21 02:55 SE 9 10.00 Light Rain SCT044 OVC060 50 44.6 82% 47 30.47 0.0 0.04
21 02:35 E 3 7.00 Light Rain OVC046 50 44.6 82% 30.48 0.0 0.03
21 02:15 E 8 10.00 Light Rain BKN048 OVC050 50 46.4 88% 47 30.47 0.0 0.02
21 01:55 Calm 5.00 Rain SCT032 SCT038 OVC048 50 46.4 88% 30.48 0.0 0.17
21 01:35 Calm 1.50 Rain SCT009 SCT030 OVC039 50 46.4 88% 30.49 0.0 0.12
21 01:15 SE 3 4.00 Rain SCT044 OVC050 50 46.4 88% 30.49 0.0 0.02
21 00:55 SE 8 5.00 Light Rain SCT044 OVC050 50 48.2 94% 47 30.47 0.0 0.07
21 00:35 SE 10 4.00 Light Rain SCT037 SCT044 OVC050 50 48.2 94% 46 30.48 0.0 0.04
21 00:15 SE 9 4.00 Light Rain SCT039 BKN048 OVC055 50 46.4 88% 47 30.48 0.0 0.03
20 23:55 SE 3 3.00 Rain SCT039 SCT047 OVC055 50 46.4 88% 30.49 0.0 0.07
20 23:35 E 7 5.00 Light Rain SCT049 OVC055 50 46.4 88% 48 30.48 0.0 0.05
20 23:15 Calm 5.00 Light Rain OVC055 50 46.4 88% 30.48 0.0 0.02
20 22:55 SE 8 10.00 Light Rain OVC065 48.2 44.6 87% 45 30.48 0.0 0.01
20 22:35 SE 8 7.00 Light Rain OVC060 46.4 44.6 93% 43 30.48 0.0 0.01
20 22:15 SE 8 7.00 Rain BKN060 OVC070 48.2 44.6 87% 45 30.48 0.0
20 21:55 SE 5 10.00 Light Rain SCT043 BKN055 OVC075 48.2 46.4 94% 47 30.47 0.0 0.03
20 21:35 E 5 10.00 Drizzle SCT042 SCT048 OVC050 48.2 44.6 87% 47 30.49 0.0 0.01
20 21:15 S 8 10.00 Overcast SCT048 OVC050 50 44.6 82% 47 30.48 0.0
20 20:55 Calm 10.00 Light Rain BKN044 OVC049 48.2 44.6 87% 30.48 0.0 0.01
20 20:35 E 5 10.00 Light Rain BKN044 OVC050 48.2 42.8 82% 47 30.49 0.0
20 20:15 SE 9 10.00 Overcast SCT050 OVC065 48.2 42.8 82% 45 30.47 0.0
20 19:55 E 3 10.00 Light Rain OVC065 48.2 41 76% 30.47 0.0 0.13
20 19:35 E 8 5.00 Rain OVC050 48.2 42.8 82% 45 30.49 0.0 0.11
20 19:15 E 6 5.00 Rain OVC050 50 44.6 82% 48 30.51 0.0 0.03
20 18:55 E 8 3.00 Rain OVC050 50 46.4 88% 47 30.5 0.0 0.22
20 18:35 E 7 G 16 2.00 Rain SCT036 BKN045 OVC050 50 46.4 88% 48 30.48 0.0 0.16
20 18:15 S 5 2.00 Rain SCT038 OVC050 51.8 46.4 82% 30.51 0.0 0.07
20 17:55 E 7 3.00 Rain OVC050 51.8 46.4 82% 30.48 0.0 0.16
20 17:35 E 3 3.00 Rain SCT029 SCT036 OVC050 51.8 46.4 82% 30.47 0.0 0.09
20 17:15 Calm 10.00 Light Rain OVC055 53.6 44.6 72% 30.46 0.0 0.02
20 16:55 Calm 5.00 Rain OVC055 55.4 42.8 63% 30.44 0.0 0.08
20 16:35 S 15 G 36 5.00 Light Rain SCT055 BKN070 OVC080 60.8 39.2 45% 30.42 0.0 0.03
20 16:15 SE 7 G 24 10.00 Overcast BKN090 OVC110 66.2 32 28% 30.38 0.0
20 15:55 S 8 10.00 Partly Cloudy SCT120 68 30.2 24% 30.39 0.0
20 15:35 S 16 G 36 10.00 Fair CLR 68 30.2 24% 30.38 0.0
20 15:15 S 25 G 30 10.00 Partly Cloudy and Breezy SCT110 69.8 30.2 23% 30.36 0.0
20 14:55 S 18 G 26 10.00 Mostly Cloudy SCT070 BKN100 69.8 32 25% 30.38 0.0
20 14:35 SE 17 G 30 10.00 Mostly Cloudy SCT070 BKN100 71.6 32 23% 30.38 0.0
20 14:15 SE 14 G 21 10.00 Partly Cloudy SCT090 SCT120 71.6 32 23% 30.39 0.0
20 13:55 SE 14 G 23 10.00 Partly Cloudy SCT085 SCT110 69.8 32 25% 30.4 0.0
20 13:35 SE 13 G 22 10.00 Light Rain SCT065 SCT095 OVC110 68 35.6 30% 30.42 0.0
20 13:15 S 18 G 26 10.00 Partly Cloudy SCT065 SCT095 SCT120 71.6 32 23% 30.42 0.0
20 12:55 S 8 G 26 10.00 Partly Cloudy SCT065 71.6 33.8 25% 30.42 0.0
20 12:35 S 10 G 25 10.00 Partly Cloudy SCT070 SCT075 69.8 32 25% 30.43 0.0
20 12:15 SW 12 G 24 10.00 Mostly Cloudy BKN070 BKN080 BKN090 69.8 32 25% 30.43 0.0
20 11:55 S 13 G 21 10.00 Mostly Cloudy SCT060 BKN070 BKN090 69.8 33.8 27% 30.44 0.0
20 11:35 S 17 G 30 10.00 Mostly Cloudy SCT060 BKN070 69.8 33.8 27% 30.44 0.0
20 11:15 S 8 G 25 10.00 Mostly Cloudy SCT060 BKN075 66.2 35.6 32% 30.44 0.0
20 10:55 SE 9 G 21 10.00 Mostly Cloudy SCT060 BKN085 BKN100 66.2 35.6 32% 30.44 0.0
20 10:35 S 5 10.00 Overcast BKN060 BKN075 OVC085 64.4 37.4 37% 30.43 0.0
20 10:15 S 7 10.00 Mostly Cloudy SCT060 BKN070 BKN085 64.4 35.6 34% 30.43 0.0
20 09:55 S 7 G 16 10.00 Mostly Cloudy BKN065 BKN075 BKN100 64.4 35.6 34% 30.43 0.0
20 09:35 S 9 10.00 Partly Cloudy SCT060 SCT085 66.2 35.6 32% 30.42 0.0
20 09:15 S 8 G 17 10.00 Fair CLR 64.4 37.4 37% 30.42 0.0
20 08:55 SE 9 10.00 Fair CLR 64.4 37.4 37% 30.42 0.0
20 08:35 SE 13 G 20 10.00 Partly Cloudy SCT060 64.4 37.4 37% 30.42 0.0
20 08:15 S 14 G 18 10.00 Partly Cloudy SCT049 SCT060 64.4 37.4 37% 30.42 0.0
20 07:55 SE 7 G 16 10.00 Partly Cloudy SCT049 SCT060 62.6 37.4 39% 30.4 0.0
20 07:35 SE 5 10.00 Fair CLR 62.6 39.2 42% 30.4 0.0
20 07:15 E 5 10.00 Fair CLR 60.8 39.2 45% 30.4 0.0
20 06:55 E 7 10.00 Fair CLR 60.8 39.2 45% 30.4 0.0
20 06:35 S 9 10.00 Fair CLR 60.8 39.2 45% 30.39 0.0
20 06:15 S 12 G 18 10.00 Fair CLR 60.8 39.2 45% 30.38 0.0
20 05:55 S 12 G 21 10.00 Fair CLR 59 41 51% 30.38 0.0
20 05:35 S 9 10.00 Fair CLR 59 41 51% 30.37 0.0
20 05:15 S 10 G 16 10.00 Fair CLR 59 41 51% 30.36 0.0
20 04:55 SE 8 G 18 10.00 Fair CLR 59 41 51% 30.36 0.0
20 04:35 SE 8 10.00 Fair CLR 59 41 51% 30.36 0.0
20 04:15 Calm 10.00 Fair CLR 59 41 51% 30.36 0.0
20 03:55 S 5 G 16 10.00 Fair CLR 60.8 41 48% 30.36 0.0
20 03:35 S 13 G 16 10.00 Fair CLR 60.8 41 48% 30.35 0.0
20 03:15 S 12 G 20 10.00 Fair CLR 60.8 41 48% 30.35 0.0
20 02:55 S 13 G 18 10.00 Fair CLR 60.8 41 48% 30.34 0.0
20 02:35 S 13 G 22 10.00 Fair CLR 60.8 41 48% 30.34 0.0
20 02:15 S 9 G 22 10.00 Fair CLR 60.8 41 48% 30.34 0.0
20 01:55 S 13 G 26 10.00 Fair CLR 60.8 41 48% 30.34 0.0
20 01:35 S 15 G 24 10.00 Mostly Cloudy SCT095 BKN110 60.8 41 48% 30.34 0.0
20 01:15 S 9 G 16 10.00 Mostly Cloudy SCT095 BKN110 60.8 37.4 42% 30.34 0.0
20 00:55 SE 7 10.00 Partly Cloudy SCT095 SCT120 60.8 32 34% 30.35 0.0
20 00:35 SE 10 10.00 Fair CLR 60.8 32 34% 30.34 0.0
20 00:15 SE 8 10.00 Partly Cloudy SCT100 60.8 28.4 29% 30.34 0.0
19 23:55 SE 7 10.00 Partly Cloudy SCT100 60.8 28.4 29% 30.34 0.0
19 23:35 SE 14 G 22 10.00 Partly Cloudy SCT110 62.6 28.4 27% 30.34 0.0
19 23:15 S 15 G 26 10.00 Mostly Cloudy SCT060 SCT075 BKN100 64.4 26.6 24% 30.34 0.0
19 22:55 SE 7 10.00 Overcast OVC100 64.4 26.6 24% 30.34 0.0
19 22:35 E 6 10.00 Overcast OVC100 64.4 24.8 22% 30.32 0.0
19 22:15 SE 3 10.00 Overcast OVC100 64.4 23 21% 30.32 0.0
19 21:55 W 6 10.00 Overcast OVC110 64.4 23 21% 30.31 0.0
19 21:35 W 7 10.00 Mostly Cloudy BKN110 66.2 23 19% 30.3 0.0
19 21:15 W 3 10.00 Overcast BKN100 OVC120 68 23 18% 30.29 0.0
19 20:55 W 6 10.00 Overcast OVC100 68 23 18% 30.28 0.0
19 20:35 W 8 10.00 Overcast OVC100 68 23 18% 30.28 0.0
19 20:15 W 9 10.00 Overcast OVC100 69.8 23 17% 30.27 0.0
Date Time (mdt) Wind (mph) Vis. (mi.) Weather Sky Cond. Air Dwpt Max. Min. Relative Humidity Wind Chill (°F) Heat Index (°F) altimeter (in) sea level (mb) 1 hr 3 hr 6 hr
6 hour
Temperature (ºF) Pressure Precipitation (in)